Location: Irma
(52.9170°N, 111.2330°W)
Time: 16:23:53
(UTC-06:00)

Amateur Radio Satellites - All Passes

Search period start: 27 March 2017 15:53
Search period end: 28 March 2017 15:53
Location: Irma, 52.9170°N, 111.2330°W

Satellite Date Start Highest point End Downlink Frequencies (MHz)
Time Altitude Azimuth
SPROUT 27 Mar 16:03:17 16:04:45 12° 309° (NW) 16:06:13 437.525
BEESAT 27 Mar 16:06:32 16:11:07 44° 99° (E) 16:15:39 436.000
MOZHAYETS 4 27 Mar 16:13:56 16:17:46 26° 93° (E) 16:21:34
ITUPSAT 1 27 Mar 16:23:28 16:28:13 60° 103° (ESE) 16:32:55 437.325
YUBILEINY 27 Mar 16:26:17 16:30:39 14° 37° (NE) 16:35:01 435.215
SO-50 27 Mar 16:33:41 16:38:19 84° 312° (NW) 16:42:55 436.795
DX 1 27 Mar 16:36:33 16:38:18 12° 309° (NW) 16:40:03 434.975-435.025
RS-15 27 Mar 16:38:55 16:50:58 56° 337° (NNW) 17:03:07 29.354- 29.394
ITAMSAT 1 27 Mar 16:39:27 16:44:06 32° 265° (W) 16:48:46 435.822/435.867
PCSat 27 Mar 16:47:37 16:52:13 27° 26° (NNE) 16:56:49 145.827
HO-68 27 Mar 16:49:55 16:52:58 13° 31° (NNE) 16:56:00 435.675
LilacSat-2 27 Mar 16:54:15 16:55:12 11° 54° (NE) 16:56:08 437.200
CUTE-I 27 Mar 16:58:51 17:02:37 20° 52° (NE) 17:06:23 437.470
CUBESAT XI-V 27 Mar 17:09:28 17:12:44 19° 89° (E) 17:16:00 437.345
NUDT-PHONESAT 27 Mar 17:12:01 17:13:34 12° 56° (NE) 17:15:08 437.300
XW-2D 27 Mar 17:15:47 17:18:11 16° 59° (ENE) 17:20:35 145.860 - 145.880
DOVE 4 27 Mar 17:17:58 17:22:07 28° 60° (ENE) 17:26:27 437.250
KAITUO 1B 27 Mar 17:20:11 17:22:17 15° 58° (ENE) 17:24:22 145.475/437.950
XW-2B 27 Mar 17:21:32 17:24:06 18° 60° (ENE) 17:26:41 145.730 - 145.750
KKS-1 27 Mar 17:23:30 17:27:23 28° 94° (E) 17:31:14 437.445
O/OREOS (USA 219) 27 Mar 17:30:27 17:34:41 39° 109° (ESE) 17:38:58 437.305
XW-2C 27 Mar 17:31:20 17:34:15 22° 62° (ENE) 17:37:12 145.795 - 145.815
BEESAT 27 Mar 17:44:35 17:48:47 31° 298° (WNW) 17:52:57 436.000
AO-7 27 Mar 17:47:21 17:53:35 23° 272° (W) 17:59:50 .
MOZHAYETS 4 27 Mar 17:50:46 17:55:10 48° 292° (WNW) 17:59:32
STARS 27 Mar 17:56:22 18:00:11 27° 94° (E) 18:03:57 437.465
ITUPSAT 1 27 Mar 18:01:54 18:05:43 25° 302° (WNW) 18:09:32 437.325
SO-50 27 Mar 18:15:27 18:19:23 27° 337° (NNW) 18:23:18 436.795
CUTE 1.7 + AOD 2 27 Mar 18:17:18 18:19:12 13° 54° (NE) 18:21:06 437.475
XW-2F 27 Mar 18:21:25 18:25:10 62° 72° (ENE) 18:28:55 145.980 - 146.000
YUBILEINY 27 Mar 18:22:12 18:30:27 44° 65° (ENE) 18:38:40 435.215
LilacSat-2 27 Mar 18:24:59 18:28:48 73° 74° (ENE) 18:32:37 437.200
PCSat 27 Mar 18:30:59 18:36:28 77° 49° (NE) 18:41:54 145.827
HO-68 27 Mar 18:32:23 18:38:48 38° 55° (NE) 18:45:15 435.675
CUTE-I 27 Mar 18:36:36 18:41:59 86° 73° (ENE) 18:47:25 437.470
XW-2A 27 Mar 18:36:59 18:39:17 17° 61° (ENE) 18:41:35 145.665 - 145.685
NUDT-PHONESAT 27 Mar 18:43:10 18:46:55 89° 69° (ENE) 18:50:41 437.300
CUBESAT XI-V 27 Mar 18:45:58 18:50:37 70° 288° (WNW) 18:55:15 437.345
XW-2D 27 Mar 18:48:11 18:51:58 65° 258° (WSW) 18:55:45 145.860 - 145.880
KAITUO 1B 27 Mar 18:52:06 18:55:50 73° 258° (WSW) 18:59:35 145.475/437.950
XW-2B 27 Mar 18:54:12 18:57:57 58° 259° (W) 19:01:42 145.730 - 145.750
RS-15 27 Mar 18:54:22 19:06:21 50° 10° (N) 19:18:07 29.354- 29.394
DOVE 4 27 Mar 18:54:49 18:59:31 54° 261° (W) 19:04:33 437.250
KKS-1 27 Mar 18:59:50 19:04:07 44° 294° (WNW) 19:08:22 437.445
XW-2C 27 Mar 19:04:35 19:08:15 44° 261° (W) 19:11:55 145.795 - 145.815
O/OREOS (USA 219) 27 Mar 19:09:56 19:14:10 36° 311° (NW) 19:18:26 437.305
UWE-3 27 Mar 19:11:33 19:14:19 16° 55° (NE) 19:17:04 435.000/436.395/437.385
AAUSAT CUBESAT 2 27 Mar 19:23:01 19:25:50 18° 59° (ENE) 19:28:41 437.432
M-CUBED/EXP-1 PRIME 27 Mar 19:27:31 19:31:30 28° 100° (E) 19:35:30 437.505
STARS 27 Mar 19:32:28 19:36:42 44° 294° (WNW) 19:40:53 437.465
Oscar 11 27 Mar 19:40:12 19:42:22 14° 54° (NE) 19:44:32 .
SEEDS 27 Mar 19:41:03 19:45:00 44° 68° (ENE) 19:49:00 437.485
CUBEBUG 2 27 Mar 19:45:52 19:50:18 40° 67° (ENE) 19:54:41 437.445
ZACube-1 27 Mar 19:48:47 19:52:01 20° 59° (ENE) 19:55:15 437.345
CUTE 1.7 + AOD 2 27 Mar 19:50:09 19:54:21 77° 74° (ENE) 19:58:35 437.475
XW-2F 27 Mar 19:57:29 19:59:43 15° 271° (W) 20:01:57 145.980 - 146.000
SO-50 27 Mar 19:57:56 20:01:13 19° 1° (N) 20:04:28 436.795
LilacSat-2 27 Mar 20:01:42 20:03:34 13° 272° (W) 20:05:26 437.200
XW-2A 27 Mar 20:08:23 20:11:45 49° 259° (W) 20:15:08 145.665 - 145.685
STRAND 1 27 Mar 20:08:41 20:13:05 28° 93° (E) 20:17:26 437.568
PCSat 27 Mar 20:15:04 20:19:21 24° 250° (WSW) 20:23:37 145.827
AO-73 27 Mar 20:15:36 20:19:29 29° 64° (ENE) 20:23:19 145.935
CUTE-I 27 Mar 20:19:08 20:22:46 18° 273° (W) 20:26:25 437.470
YUBILEINY 27 Mar 20:19:10 20:27:36 57° 269° (W) 20:36:02 435.215
HO-68 27 Mar 20:19:10 20:26:15 63° 257° (WSW) 20:33:23 435.675
NUDT-PHONESAT 27 Mar 20:20:45 20:21:27 10° 274° (W) 20:22:08 437.300
CUBESAT XI-V 27 Mar 20:24:56 20:27:12 14° 308° (NW) 20:29:28 437.345
DELFI C3 27 Mar 20:31:46 20:33:33 13° 55° (NE) 20:35:22 145.870
AO-85 27 Mar 20:38:13 20:39:52 12° 112° (ESE) 20:41:28 145.980
UWE-3 27 Mar 20:45:30 20:50:09 86° 74° (ENE) 20:54:44 435.000/436.395/437.385
O/OREOS (USA 219) 27 Mar 20:53:28 20:54:58 11° 334° (NNW) 20:56:28 437.305
AAUSAT CUBESAT 2 27 Mar 20:56:49 21:00:54 66° 258° (WSW) 21:05:01 437.432
M-CUBED/EXP-1 PRIME 27 Mar 21:01:39 21:06:07 51° 298° (WNW) 21:10:39 437.505
RS-15 27 Mar 21:08:22 21:20:52 78° 41° (NE) 21:32:53 29.354- 29.394
Oscar 11 27 Mar 21:13:30 21:17:50 80° 74° (ENE) 21:22:10 .
SEEDS 27 Mar 21:17:31 21:20:54 24° 268° (W) 21:24:19 437.485
CUBEBUG 2 27 Mar 21:22:42 21:27:00 33° 265° (W) 21:31:14 437.445
ZACube-1 27 Mar 21:23:22 21:27:54 69° 258° (WSW) 21:32:21 437.345
Tancredo 1 27 Mar 21:28:17 21:30:27 17° 145° (SE) 21:32:38 437.200
CUTE 1.7 + AOD 2 27 Mar 21:28:23 21:30:45 14° 273° (W) 21:33:06 437.475
ISS 27 Mar 21:34:22 21:36:41 18° 145° (SE) 21:39:00 437.550
SO-50 27 Mar 21:39:00 21:43:00 29° 26° (NNE) 21:46:57 436.795
STRAND 1 27 Mar 21:47:34 21:52:33 53° 293° (WNW) 21:57:30 437.568
AO-73 27 Mar 21:51:19 21:55:36 42° 262° (W) 21:59:50 145.935
PRISM 27 Mar 21:58:35 22:00:52 14° 88° (E) 22:03:07 437.425
DELFI C3 27 Mar 22:03:49 22:07:44 86° 70° (ENE) 22:11:42 145.870
BEESAT 3 27 Mar 22:10:51 22:11:42 11° 110° (ESE) 22:12:34 437.485
ESTCUBE 1 27 Mar 22:11:26 22:13:53 15° 53° (NE) 22:16:22 437.505/2401.250
HO-68 27 Mar 22:11:46 22:15:29 15° 278° (W) 22:19:14 435.675
AO-85 27 Mar 22:15:20 22:19:36 72° 130° (SE) 22:23:39 145.980
YUBILEINY 27 Mar 22:18:17 22:22:24 14° 293° (WNW) 22:26:30 435.215
UWE-3 27 Mar 22:24:31 22:27:12 15° 273° (W) 22:29:52 435.000/436.395/437.385
M-CUBED/EXP-1 PRIME 27 Mar 22:37:49 22:39:39 12° 317° (NW) 22:41:31 437.505
Oscar 11 27 Mar 22:52:07 22:54:32 15° 273° (W) 22:56:58 .
TIGRISAT 27 Mar 23:01:37 23:05:32 29° 94° (E) 23:09:20 435.000
Tancredo 1 27 Mar 23:03:00 23:06:06 51° 165° (SSE) 23:09:13 437.200
ZACube-1 27 Mar 23:04:21 23:04:59 10° 277° (W) 23:05:38 437.345
ISS 27 Mar 23:09:29 23:12:41 52° 165° (SSE) 23:15:54 437.550
UNISAT 6 27 Mar 23:12:05 23:16:17 39° 97° (E) 23:20:22 437.425
LO-87 27 Mar 23:12:16 23:15:52 65° 73° (ENE) 23:19:29 145.935 - 145.965
FO-29 27 Mar 23:13:15 23:18:35 30° 90° (E) 23:23:24 435.910
VELOX 1 27 Mar 23:16:43 23:19:54 20° 57° (ENE) 23:23:06 145.980
SO-50 27 Mar 23:19:24 23:23:57 83° 229° (SW) 23:28:27 436.795
RS-15 27 Mar 23:21:24 23:32:41 45° 249° (WSW) 23:43:33 29.354- 29.394
STRAND 1 27 Mar 23:28:40 23:30:41 12° 314° (NW) 23:32:42 437.568
PRISM 27 Mar 23:32:30 23:36:42 79° 285° (WNW) 23:40:51 437.425
DELFI C3 27 Mar 23:41:40 23:43:08 12° 274° (W) 23:44:36 145.870
AIST 2D 27 Mar 23:43:52 23:45:16 12° 88° (E) 23:46:40 435.315
BEESAT 3 27 Mar 23:44:36 23:48:32 68° 129° (SE) 23:52:32 437.485
ESTCUBE 1 27 Mar 23:45:32 23:50:01 81° 73° (ENE) 23:54:32 437.505/2401.250
SPROUT 27 Mar 23:49:02 23:52:46 29° 63° (ENE) 23:56:31 437.525
POLYITAN 1 27 Mar 23:54:21 23:55:38 11° 85° (E) 23:56:54 437.675
AO-85 27 Mar 23:56:45 00:00:21 27° 331° (NNW) 00:03:50 145.980
QB50P2 27 Mar 23:58:23 00:00:28 13° 87° (E) 00:02:31 145.880/145.840
50 SAT 28 Mar 00:01:28 00:04:17 24° 64° (ENE) 00:07:08 437.505
BEESAT 2 28 Mar 00:03:40 00:07:30 47° 126° (SE) 00:11:24 435.950
DUCHIFAT 1 28 Mar 00:08:19 00:10:16 13° 86° (E) 00:12:12 145.980
O/OREOS (USA 219) 28 Mar 00:16:50 00:18:32 12° 27° (NNE) 00:20:13 437.305
DX 1 28 Mar 00:24:00 00:27:57 34° 64° (ENE) 00:31:54 434.975-435.025
TIGRISAT 28 Mar 00:38:11 00:42:20 39° 294° (WNW) 00:46:23 435.000
Tancredo 1 28 Mar 00:38:55 00:42:06 70° 184° (S) 00:45:16 437.200
ISS 28 Mar 00:45:45 00:49:02 70° 184° (S) 00:52:20 437.550
LO-87 28 Mar 00:47:54 00:49:44 13° 272° (W) 00:51:36 145.935 - 145.965
UNISAT 6 28 Mar 00:49:00 00:52:55 31° 297° (WNW) 00:56:45 437.425
VELOX 1 28 Mar 00:51:30 00:55:55 70° 257° (WSW) 01:00:22 145.980
NANOSAT C BR1 28 Mar 00:53:49 00:57:45 36° 97° (E) 01:01:39 145.865
FO-29 28 Mar 00:58:02 01:04:10 57° 294° (WNW) 01:09:36 435.910
EO-79 28 Mar 00:59:19 01:03:24 43° 99° (E) 01:07:26 145.935-145.965
UKube-1 28 Mar 01:00:37 01:04:49 52° 69° (ENE) 01:09:03 .
SO-50 28 Mar 01:01:05 01:03:45 16° 248° (WSW) 01:06:24 436.795
PRISM 28 Mar 01:09:20 01:11:19 13° 307° (NW) 01:13:16 437.425
AIST 2D 28 Mar 01:15:27 01:18:57 68° 287° (WNW) 01:22:24 435.315
BEESAT 3 28 Mar 01:23:00 01:26:29 28° 331° (NNW) 01:30:01 437.485
SPROUT 28 Mar 01:24:32 01:28:35 40° 262° (W) 01:32:40 437.525
ESTCUBE 1 28 Mar 01:24:47 01:27:25 15° 273° (W) 01:30:04 437.505/2401.250
POLYITAN 1 28 Mar 01:27:53 01:32:10 81° 105° (ESE) 01:36:22 437.675
QB50P2 28 Mar 01:32:36 01:36:53 86° 290° (WNW) 01:41:07 145.880/145.840
50 SAT 28 Mar 01:34:05 01:37:14 32° 263° (W) 01:40:25 437.505
RS-15 28 Mar 01:39:16 01:41:27 11° 274° (W) 01:43:36 29.354- 29.394
AO-85 28 Mar 01:39:31 01:41:57 15° 355° (N) 01:44:22 145.980
BEESAT 2 28 Mar 01:41:42 01:45:25 35° 327° (NNW) 01:49:10 435.950
DUCHIFAT 1 28 Mar 01:42:19 01:46:35 87° 285° (WNW) 01:50:47 145.980
BEESAT 28 Mar 01:42:52 01:46:11 19° 55° (NE) 01:49:30 436.000
Gurwin Techsat 1B 28 Mar 01:45:12 01:46:10 10° 81° (E) 01:47:07 435.225
BUGSAT 1 28 Mar 01:52:02 01:56:06 45° 99° (E) 02:00:05 437.445
O/OREOS (USA 219) 28 Mar 01:54:58 01:59:18 38° 50° (NE) 02:03:36 437.305
ITUPSAT 1 28 Mar 01:59:32 02:03:21 24° 58° (ENE) 02:07:12 437.325
DX 1 28 Mar 02:00:08 02:04:07 35° 263° (W) 02:08:09 434.975-435.025
Tancredo 1 28 Mar 02:15:03 02:18:00 34° 204° (SSW) 02:20:56 437.200
ISS 28 Mar 02:22:14 02:25:17 35° 204° (SSW) 02:28:20 437.550
NANOSAT C BR1 28 Mar 02:29:40 02:33:25 31° 296° (WNW) 02:37:08 145.865
VELOX 1 28 Mar 02:32:49 02:33:14 10° 276° (W) 02:33:39 145.980
EO-79 28 Mar 02:35:26 02:39:00 27° 298° (WNW) 02:42:33 145.935-145.965
UKube-1 28 Mar 02:37:47 02:41:09 22° 268° (W) 02:44:33 .
FO-29 28 Mar 02:44:26 02:47:53 15° 318° (NW) 02:51:09 435.910
Oscar 19 28 Mar 02:54:31 02:59:39 58° 101° (ESE) 03:04:45 437.125/150
KKS-1 28 Mar 02:54:43 02:55:40 11° 48° (NE) 02:56:36 437.445
BEESAT 3 28 Mar 03:02:48 03:05:17 15° 354° (N) 03:07:45 437.485
POLYITAN 1 28 Mar 03:04:46 03:07:25 16° 304° (NW) 03:10:03 437.675
QB50P2 28 Mar 03:09:44 03:12:03 14° 306° (NW) 03:14:20 145.880/145.840
BEESAT 28 Mar 03:18:37 03:23:25 83° 257° (WSW) 03:28:14 436.000
DUCHIFAT 1 28 Mar 03:19:20 03:21:38 14° 305° (NW) 03:23:55 145.980
AO-85 28 Mar 03:20:42 03:23:43 20° 20° (NNE) 03:26:43 145.980
MOZHAYETS 4 28 Mar 03:21:15 03:25:40 49° 68° (ENE) 03:30:06
BEESAT 2 28 Mar 03:21:37 03:24:15 17° 350° (N) 03:26:55 435.950
Gurwin Techsat 1B 28 Mar 03:21:58 03:27:16 60° 101° (ESE) 03:32:31 435.225
STARS 28 Mar 03:26:49 03:27:12 10° 48° (NE) 03:27:36 437.465
BUGSAT 1 28 Mar 03:27:49 03:31:16 25° 299° (WNW) 03:34:40 437.445
O/OREOS (USA 219) 28 Mar 03:34:28 03:38:44 38° 251° (WSW) 03:42:58 437.305
ITUPSAT 1 28 Mar 03:36:06 03:40:51 61° 258° (WSW) 03:45:37 437.325
AO-7 28 Mar 03:46:31 03:52:52 24° 88° (E) 03:59:12 .
CUBESAT XI-V 28 Mar 04:18:13 04:22:23 35° 64° (ENE) 04:26:34 437.345
KKS-1 28 Mar 04:26:55 04:31:16 53° 69° (ENE) 04:35:40 437.445
Oscar 19 28 Mar 04:34:20 04:38:41 28° 301° (WNW) 04:43:03 437.125/150
BEESAT 3 28 Mar 04:41:18 04:44:16 19° 18° (NNE) 04:47:14 437.485
ITAMSAT 1 28 Mar 04:45:08 04:50:19 58° 102° (ESE) 04:55:25 435.822/435.867
M-CUBED/EXP-1 PRIME 28 Mar 04:46:41 04:48:58 15° 46° (NE) 04:51:20 437.505
STARS 28 Mar 04:58:18 05:02:35 51° 68° (ENE) 05:06:55 437.465
MOZHAYETS 4 28 Mar 04:59:15 05:03:05 26° 268° (W) 05:06:55
BEESAT 28 Mar 04:59:35 05:01:58 14° 274° (W) 05:04:21 436.000
BEESAT 2 28 Mar 05:00:40 05:03:27 17° 14° (NNE) 05:06:15 435.950
AO-85 28 Mar 05:00:52 05:04:47 67° 42° (NE) 05:08:44 145.980
Gurwin Techsat 1B 28 Mar 05:02:25 05:06:55 29° 302° (WNW) 05:11:24 435.225
AO-7 28 Mar 05:38:32 05:46:54 84° 110° (ESE) 05:55:13 .
STRAND 1 28 Mar 05:53:59 05:57:01 16° 50° (NE) 06:00:03 437.568
CUBESAT XI-V 28 Mar 05:55:32 05:59:45 36° 264° (W) 06:04:02 437.345
KKS-1 28 Mar 06:04:34 06:08:08 23° 268° (W) 06:11:45 437.445
BEESAT 3 28 Mar 06:18:42 06:22:40 53° 40° (NE) 06:26:38 437.485
M-CUBED/EXP-1 PRIME 28 Mar 06:18:49 06:22:42 80° 65° (ENE) 06:26:56 437.505
XW-2B 28 Mar 06:23:17 06:23:44 10° 85° (E) 06:24:12 145.730 - 145.750
ITAMSAT 1 28 Mar 06:25:06 06:29:29 28° 302° (WNW) 06:33:52 435.822/435.867
XW-2C 28 Mar 06:32:20 06:34:10 13° 88° (E) 06:35:58 145.795 - 145.815
STARS 28 Mar 06:35:38 06:39:12 24° 267° (W) 06:42:49 437.465
BEESAT 2 28 Mar 06:38:19 06:42:12 41° 36° (NE) 06:46:04 435.950
AO-85 28 Mar 06:41:56 06:44:48 19° 243° (WSW) 06:47:41 145.980
DOVE 4 28 Mar 06:47:17 06:52:05 33° 93° (E) 06:56:48 437.250
CUTE-I 28 Mar 06:48:03 06:52:11 22° 90° (E) 06:56:16 437.470
XW-2F 28 Mar 07:21:45 07:25:17 38° 98° (E) 07:28:47 145.980 - 146.000
LilacSat-2 28 Mar 07:26:25 07:30:05 46° 99° (E) 07:33:43 437.200
STRAND 1 28 Mar 07:30:15 07:35:23 72° 71° (ENE) 07:40:32 437.568
YUBILEINY 28 Mar 07:31:26 07:39:15 39° 84° (E) 07:47:03 435.215
AO-7 28 Mar 07:31:50 07:38:59 34° 313° (NW) 07:46:07 .
HO-68 28 Mar 07:40:50 07:45:54 20° 86° (E) 07:50:57 435.675
NUDT-PHONESAT 28 Mar 07:41:37 07:45:16 53° 100° (E) 07:48:51 437.300
XW-2D 28 Mar 07:48:47 07:52:34 80° 104° (ESE) 07:56:19 145.860 - 145.880
KAITUO 1B 28 Mar 07:51:17 07:54:59 68° 102° (ESE) 07:58:39 145.475/437.950
FO-29 28 Mar 07:51:44 07:53:46 11° 36° (NE) 07:55:44 435.910
XW-2B 28 Mar 07:54:47 07:58:34 89° 104° (ESE) 08:02:19 145.730 - 145.750
M-CUBED/EXP-1 PRIME 28 Mar 07:55:43 07:57:48 14° 268° (W) 07:59:57 437.505
BEESAT 3 28 Mar 07:56:39 08:00:05 27° 240° (WSW) 08:03:28 437.485
XW-2C 28 Mar 08:05:06 08:08:51 71° 287° (WNW) 08:12:34 145.795 - 145.815
NO-84 28 Mar 08:06:58 08:09:36 34° 148° (SSE) 08:12:16 435.350 FM
BEESAT 2 28 Mar 08:16:12 08:19:59 38° 237° (WSW) 08:23:44 435.950
DOVE 4 28 Mar 08:24:49 08:29:56 49° 293° (WNW) 08:34:59 437.250
CUTE-I 28 Mar 08:27:25 08:32:47 71° 289° (WNW) 08:38:05 437.470
UWE-3 28 Mar 08:31:13 08:32:40 11° 84° (E) 08:34:07 435.000/436.395/437.385
TIGRISAT 28 Mar 08:32:52 08:34:11 11° 50° (NE) 08:35:31 435.000
AAUSAT CUBESAT 2 28 Mar 08:34:02 08:36:10 14° 87° (E) 08:38:18 437.432
UNISAT 6 28 Mar 08:42:26 08:44:47 14° 53° (NE) 08:47:08 437.425
PRISM 28 Mar 08:53:07 08:56:23 23° 61° (ENE) 08:59:40 437.425
SEEDS 28 Mar 08:54:06 08:58:02 37° 97° (E) 09:01:56 437.485
XW-2F 28 Mar 08:56:15 08:59:16 24° 297° (WNW) 09:02:17 145.980 - 146.000
XW-2A 28 Mar 08:57:00 09:00:25 72° 103° (ESE) 09:03:46 145.665 - 145.685
LilacSat-2 28 Mar 09:01:16 09:04:07 21° 298° (WNW) 09:06:58 437.200
CUTE 1.7 + AOD 2 28 Mar 09:04:32 09:08:45 68° 102° (ESE) 09:12:58 437.475
ZACube-1 28 Mar 09:06:46 09:09:17 15° 87° (E) 09:11:47 437.345
CUBEBUG 2 28 Mar 09:07:05 09:11:13 37° 96° (E) 09:15:13 437.445
STRAND 1 28 Mar 09:11:15 09:15:06 21° 270° (W) 09:18:59 437.568
NUDT-PHONESAT 28 Mar 09:16:19 09:18:52 18° 299° (WNW) 09:21:25 437.300
PCSat 28 Mar 09:20:21 09:24:01 19° 107° (ESE) 09:27:40 145.827
XW-2D 28 Mar 09:24:19 09:26:14 14° 303° (WNW) 09:28:10 145.860 - 145.880
AO-7 28 Mar 09:25:15 09:29:23 15° 339° (NNW) 09:33:31 .
KAITUO 1B 28 Mar 09:26:23 09:28:33 15° 302° (WNW) 09:30:44 145.475/437.950
YUBILEINY 28 Mar 09:27:02 09:35:40 63° 287° (WNW) 09:44:21 435.215
HO-68 28 Mar 09:27:32 09:34:46 81° 107° (ESE) 09:41:57 435.675
FO-29 28 Mar 09:30:21 09:37:01 35° 58° (ENE) 09:43:11 435.910
XW-2B 28 Mar 09:30:32 09:32:11 13° 304° (NW) 09:33:50 145.730 - 145.750
AO-73 28 Mar 09:33:21 09:36:50 24° 92° (E) 09:40:14 145.935
XW-2C 28 Mar 09:41:52 09:42:21 10° 306° (NW) 09:42:48 145.795 - 145.815
NO-84 28 Mar 09:44:10 09:47:01 66° 348° (NNW) 09:49:57 435.350 FM
DOVE 4 28 Mar 10:04:36 10:06:27 12° 313° (NW) 10:08:18 437.250
TIGRISAT 28 Mar 10:05:23 10:09:57 55° 69° (ENE) 10:14:29 435.000
UWE-3 28 Mar 10:05:32 10:09:56 83° 106° (ESE) 10:14:09 435.000/436.395/437.385
AAUSAT CUBESAT 2 28 Mar 10:08:02 10:12:12 81° 288° (WNW) 10:16:21 437.432
CUTE-I 28 Mar 10:08:42 10:11:59 17° 310° (NW) 10:15:14 437.470
UNISAT 6 28 Mar 10:16:04 10:20:44 71° 72° (ENE) 10:25:22 437.425
NANOSAT C BR1 28 Mar 10:19:38 10:20:32 11° 51° (NE) 10:21:26 145.865
AIST 2D 28 Mar 10:24:17 10:26:00 13° 58° (ENE) 10:27:44 435.315
EO-79 28 Mar 10:24:28 10:26:17 13° 52° (NE) 10:28:07 145.935-145.965
PRISM 28 Mar 10:27:29 10:31:26 48° 260° (W) 10:35:27 437.425
SEEDS 28 Mar 10:30:00 10:33:39 29° 296° (WNW) 10:37:17 437.485
Oscar 11 28 Mar 10:30:34 10:34:53 72° 103° (ESE) 10:39:10 .
XW-2A 28 Mar 10:31:10 10:32:42 13° 302° (WNW) 10:34:15 145.665 - 145.685
CUTE 1.7 + AOD 2 28 Mar 10:41:14 10:44:10 19° 301° (WNW) 10:47:06 437.475
ZACube-1 28 Mar 10:41:51 10:46:08 73° 287° (WNW) 10:50:17 437.345
CUBEBUG 2 28 Mar 10:43:50 10:47:48 32° 296° (WNW) 10:51:39 437.445
POLYITAN 1 28 Mar 10:51:37 10:54:45 20° 59° (ENE) 10:57:55 437.675
QB50P2 28 Mar 10:56:03 10:59:26 23° 60° (ENE) 11:02:49 145.880/145.840
PCSat 28 Mar 11:01:14 11:06:40 86° 128° (SE) 11:12:09 145.827
DUCHIFAT 1 28 Mar 11:05:08 11:08:26 22° 60° (ENE) 11:11:45 145.980
AO-73 28 Mar 11:09:14 11:13:17 44° 292° (WNW) 11:17:15 145.935
DELFI C3 28 Mar 11:09:28 11:13:25 61° 101° (E) 11:17:23 145.870
FO-29 28 Mar 11:13:57 11:21:40 71° 257° (WSW) 11:28:46 435.910
BUGSAT 1 28 Mar 11:14:46 11:16:34 12° 53° (NE) 11:18:21 437.445
HO-68 28 Mar 11:15:52 11:21:54 30° 309° (NW) 11:27:54 435.675
AO-7 28 Mar 11:16:08 11:18:47 12° 7° (N) 11:21:28 .
NO-84 28 Mar 11:21:51 11:24:45 60° 10° (N) 11:27:47 435.350 FM
YUBILEINY 28 Mar 11:28:35 11:34:37 20° 314° (NW) 11:40:42 435.215
ESTCUBE 1 28 Mar 11:33:51 11:35:23 11° 84° (E) 11:36:54 437.505/2401.250
RS-15 28 Mar 11:42:49 11:51:15 23° 97° (E) 11:59:49 29.354- 29.394
UWE-3 28 Mar 11:43:06 11:45:48 16° 305° (NW) 11:48:26 435.000/436.395/437.385
TIGRISAT 28 Mar 11:43:09 11:46:56 24° 268° (W) 11:50:41 435.000
AAUSAT CUBESAT 2 28 Mar 11:45:04 11:47:01 13° 305° (NW) 11:48:58 437.432
NANOSAT C BR1 28 Mar 11:51:12 11:55:23 58° 71° (ENE) 11:59:36 145.865
UNISAT 6 28 Mar 11:54:41 11:57:56 18° 271° (W) 12:01:10 437.425
AIST 2D 28 Mar 11:55:14 11:58:46 74° 258° (WSW) 12:02:18 435.315
EO-79 28 Mar 11:57:03 12:01:18 71° 73° (ENE) 12:05:36 145.935-145.965
LO-87 28 Mar 12:06:51 12:10:15 35° 97° (E) 12:13:36 145.935 - 145.965
Oscar 11 28 Mar 12:07:36 12:10:33 18° 302° (WNW) 12:13:30 .
ZACube-1 28 Mar 12:19:54 12:21:39 12° 307° (NW) 12:23:24 437.345
POLYITAN 1 28 Mar 12:25:54 12:30:10 63° 258° (WSW) 12:34:27 437.675
QB50P2 28 Mar 12:30:45 12:34:57 53° 260° (W) 12:39:09 145.880/145.840
VELOX 1 28 Mar 12:36:27 12:39:06 15° 88° (E) 12:41:43 145.980
Oscar 19 28 Mar 12:39:18 12:43:39 29° 59° (ENE) 12:48:01 437.125/150
DUCHIFAT 1 28 Mar 12:39:37 12:43:48 55° 259° (W) 12:48:01 145.980
DELFI C3 28 Mar 12:45:04 12:47:51 18° 301° (WNW) 12:50:38 145.870
PCSat 28 Mar 12:45:55 12:50:42 30° 330° (NNW) 12:55:31 145.827
BUGSAT 1 28 Mar 12:46:57 12:51:10 71° 73° (ENE) 12:55:26 437.445
50 SAT 28 Mar 12:53:41 12:54:51 11° 88° (E) 12:56:00 437.505
NO-84 28 Mar 12:59:21 13:02:15 47° 209° (SSW) 13:05:22 435.350 FM
AO-7 28 Mar 13:02:46 13:08:34 22° 34° (NE) 13:14:20 .
FO-29 28 Mar 13:02:49 13:07:47 18° 277° (W) 13:12:32 435.910
SPROUT 28 Mar 13:04:12 13:07:41 23° 92° (E) 13:11:08 437.525
HO-68 28 Mar 13:05:41 13:07:28 11° 334° (NNW) 13:09:14 435.675
ESTCUBE 1 28 Mar 13:08:26 13:12:59 77° 105° (ESE) 13:17:30 437.505/2401.250
Gurwin Techsat 1B 28 Mar 13:10:17 13:14:56 32° 60° (ENE) 13:19:38 435.225
NANOSAT C BR1 28 Mar 13:28:21 13:31:28 19° 269° (W) 13:34:36 145.865
EO-79 28 Mar 13:34:51 13:37:34 16° 271° (W) 13:40:18 145.935-145.965
LO-87 28 Mar 13:40:33 13:43:35 25° 296° (WNW) 13:46:36 145.935 - 145.965
DX 1 28 Mar 13:41:54 13:45:39 26° 94° (E) 13:49:21 434.975-435.025
RS-15 28 Mar 13:49:27 14:01:24 69° 123° (ESE) 14:13:38 29.354- 29.394
VELOX 1 28 Mar 14:11:38 14:16:08 81° 287° (WNW) 14:20:36 145.980
UKube-1 28 Mar 14:17:23 14:21:30 40° 98° (E) 14:25:35 .
Oscar 19 28 Mar 14:17:42 14:22:44 55° 259° (W) 14:27:47 437.125/150
BUGSAT 1 28 Mar 14:24:20 14:27:01 16° 271° (W) 14:29:43 437.445
50 SAT 28 Mar 14:24:52 14:28:22 74° 287° (WNW) 14:31:53 437.505
ITAMSAT 1 28 Mar 14:30:43 14:35:16 31° 59° (ENE) 14:39:49 435.822/435.867
PCSat 28 Mar 14:32:03 14:35:49 18° 356° (N) 14:39:35 145.827
NO-84 28 Mar 14:38:40 14:39:16 10° 226° (SW) 14:39:52 435.350 FM
SPROUT 28 Mar 14:39:41 14:43:50 48° 292° (WNW) 14:47:57 437.525
ESTCUBE 1 28 Mar 14:46:11 14:49:17 19° 304° (WNW) 14:52:24 437.505/2401.250
Gurwin Techsat 1B 28 Mar 14:49:32 14:54:43 52° 260° (W) 14:59:56 435.225
AO-7 28 Mar 14:51:42 14:59:46 57° 58° (ENE) 15:07:49 .
BEESAT 28 Mar 15:13:34 15:16:34 16° 88° (E) 15:19:33 436.000
DX 1 28 Mar 15:17:49 15:22:01 44° 293° (WNW) 15:26:11 434.975-435.025
SO-50 28 Mar 15:19:06 15:23:23 38° 123° (ESE) 15:27:38 436.795
ITUPSAT 1 28 Mar 15:30:50 15:34:34 22° 91° (E) 15:38:17 437.325
